Terminal Aerodrome Forecast
Issued by NWS

Home | Current Version | Previous Version | Text Only | Print | Product List | Glossary On
Versions: 1 2 3 4 5 6 7 8 9 10 11 12 13 14 15 16 17 18 19 20 21 22 23 24 25 26 27 28 29 30 31 32 33 34 35 36 37 38
000
FTUS45 KBOI 210800 AAB
TAFTWF
TAF AMD
KTWF 210800Z 2108/2206 24007KT P6SM VCTS BKN080CB OVC120
      TEMPO 2108/2109 VRB15G25KT 6SM -SHRA SCT050 OVC080
     FM210900 19008KT P6SM VCSH SCT080 BKN100
     FM211200 VRB05KT P6SM BKN150
     FM211800 27008KT P6SM VCSH BKN120=

USA.gov is the U.S. government's official web portal to all federal, state and local government web resources and services.